[[{"header":{"parameterUnit":"m.s-1","parameterCategory":1,"la1":30.2991,"la2":30.254,"lo1":-89.0895,"lo2":-89.0444,"dy":0.0017,"dx":0.0017,"nx":28,"ny":28,"refTime":"2025-07-05T09:00:00:Z","depth":0,"parameterNumber":2,"parameterNumberName":"U-component_of_WINDS"},"data":[0,0,0,0,0,0,0,0,0,0,0,0,0,0,0,0,0,0,0,0,0,0,0,0,0,0,0,0,0,0,0,0,0,0,0,0,0,0,0,0,0,0,0,0,0,0,0,0,0,0,0,0,0,0,0,0,0,0,0.628,0.6281,0,0.6342,0.6343,0.6344,0.6376,0.6376,0.6376,0.6376,0.6438,0.644,0.6441,0,0,0,0,0,0,0,0,0,0,0,0,0,0.6189,0.619,0.628,0.6281,0.6282,0.6342,0.6343,0.6344,0.6376,0.6376,0.6376,0.6377,0.6438,0.6439,0.6441,0,0,0,0,0,0,0,0,0,0,0,0,0,0.6237,0.6191,0.628,0.6305,0.6308,0.6342,0.6343,0.6344,0.6376,0.6376,0.6376,0.6377,0.6437,0.6439,0.6442,0.6455,0,0,0.6449,0.645,0,0,0,0,0,0,0,0,0.6234,0.624,0.6301,0.6304,0.6307,0.6352,0.6333,0.6381,0.6376,0.635,0.6376,0.6377,0.6409,0.6414,0.6425,0.6457,0.646,0.6449,0.645,0.6451,0.6452,0,0,0,0,0,0,0,0.6231,0.6238,0.6305,0.6302,0.6305,0.6313,0.632,0.6343,0.6378,0.6353,0.6355,0.6362,0.6411,0.6423,0.6427,0.6461,0.6449,0.6451,0.6453,0.6453,0.6508,0.6508,0,0,0,0,0,0,0.6224,0.6235,0.6303,0.6307,0.627,0.6315,0.6323,0.6337,0.6378,0.6385,0.6362,0.6363,0.6419,0.6424,0.6429,0.6448,0.6451,0.6454,0.6455,0.6508,0.6508,0.6508,0,0,0,0,0,0,0.6222,0.623,0.63,0.6272,0.6281,0.6316,0.6332,0.6338,0.6351,0.6385,0.6392,0.6368,0.6419,0.6426,0.6448,0.645,0.6455,0.6457,0.6508,0.6508,0.6508,0.6484,0,0,0,0,0,0,0.6219,0.6229,0.6234,0.6271,0.6283,0.6319,0.6333,0.634,0.6355,0.6357,0.6393,0.6398,0.642,0.6445,0.6451,0.6454,0.6459,0.6508,0.6508,0.6508,0.6485,0.6483,0.6482,0,0,0,0,0,0.6215,0.6224,0.6234,0.6242,0.629,0.6319,0.6325,0.635,0.6355,0.636,0.6383,0.6397,0.6449,0.6447,0.6454,0.6457,0.6508,0.6508,0.6508,0.6486,0.6484,0.6482,0,0,0,0,0,0,0.6185,0.623,0.6241,0.6262,0.6287,0.6324,0.6332,0.6347,0.637,0.6371,0.64,0.6408,0.6428,0.6445,0.6441,0.6473,0.648,0.6481,0.646,0.6459,0.6458,0.6453,0.6461,0,0,0,0,0,0.6181,0.6201,0.6239,0.6254,0.6265,0.6297,0.631,0.6327,0.6353,0.6363,0.6387,0.6412,0.6434,0.6447,0.6469,0.6488,0.6496,0.6494,0.6492,0.6491,0.6492,0.6503,0.6503,0.6508,0.6508,0.6508,0,0,0.6172,0.6199,0.621,0.6248,0.6269,0.6289,0.6305,0.6325,0.634,0.6366,0.6389,0.6408,0.6437,0.6458,0.6468,0.6473,0.6492,0.6491,0.649,0.6491,0.6503,0.6503,0.6502,0.6508,0.6508,0.6508,0,0,0.6167,0.6189,0.6204,0.6225,0.6257,0.6278,0.6282,0.6318,0.6331,0.6355,0.6376,0.6394,0.643,0.6451,0.6466,0.6469,0.6483,0.6475,0.6468,0.6479,0.6478,0.6478,0.6479,0.648,0.6476,0.6476,0.6476,0,0.6152,0.6183,0.621,0.6229,0.6246,0.6272,0.6288,0.6306,0.6343,0.6354,0.6359,0.6406,0.6428,0.6454,0.6455,0.6466,0.6471,0.6471,0.6476,0.6476,0.6476,0.6478,0.6479,0.6475,0.6475,0.6475,0.6475,0,0.6163,0.6184,0.6193,0.6229,0.6246,0.6264,0.6293,0.6308,0.6324,0.6344,0.6368,0.6395,0.6423,0.6431,0.6446,0.6459,0.6461,0.6471,0.6479,0.6474,0.6477,0.6477,0.6473,0.6474,0.6474,0.6474,0,0,0.6139,0.6191,0.6194,0.6211,0.6248,0.6265,0.6284,0.6312,0.6324,0.6349,0.6365,0.6397,0.6406,0.6423,0.6441,0.6451,0.6452,0.6459,0.6461,0.6457,0.6469,0.6462,0.6462,0.6462,0.6462,0.6463,0.6467,0,0.6138,0.6174,0.6199,0.6225,0.6245,0.627,0.6287,0.6311,0.6331,0.6351,0.6373,0.6395,0.6405,0.6416,0.6427,0.645,0.6455,0.645,0.6477,0.6478,0.6469,0.6463,0.6455,0.6458,0.6468,0.6468,0.6468,0,0.6142,0.6168,0.6195,0.6232,0.6241,0.6255,0.6284,0.6303,0.6331,0.6345,0.6365,0.6384,0.6405,0.6411,0.644,0.6436,0.6449,0.6462,0.6463,0.6466,0.6472,0.6466,0.6459,0.6459,0.647,0.647,0.6469,0,0.6122,0.6163,0.6185,0.6199,0.6242,0.6251,0.627,0.6299,0.6314,0.6339,0.635,0.6377,0.6391,0.6412,0.6437,0.644,0.6464,0.6472,0.6476,0.6475,0.6479,0.6478,0.6474,0.6488,0.6488,0.6488,0.6488,0,0.6119,0.6134,0.6176,0.619,0.6208,0.6238,0.6256,0.6276,0.6302,0.632,0.6343,0.6359,0.6392,0.6412,0.6433,0.6454,0.646,0.6472,0.6477,0.647,0.6468,0.6478,0.6478,0.6488,0.6488,0.6488,0.6488,0,0.6098,0.6127,0.6153,0.6192,0.6203,0.6215,0.6248,0.6262,0.6284,0.6306,0.6313,0.6347,0.6372,0.64,0.6434,0.6447,0.6467,0.6475,0.6458,0.6461,0.6463,0.6462,0.6464,0.6466,0.6478,0.6478,0.6478,0,0.6094,0.6107,0.6148,0.6162,0.618,0.6202,0.6219,0.6249,0.6266,0.63,0.631,0.6337,0.636,0.6399,0.6427,0.6453,0.6461,0.646,0.6465,0.6458,0.6461,0.646,0.6462,0.6458,0.6458,0.6458,0.6458,0,0.6083,0.6097,0.6121,0.615,0.6169,0.6193,0.6218,0.6228,0.6263,0.628,0.6307,0.6325,0.6361,0.6387,0.6417,0.6436,0.6453,0.6456,0.6458,0.6451,0.644,0.6446,0.6454,0.6456,0.6456,0.6456,0.6456,0.6456,0.6071,0.6084,0.6115,0.6141,0.6163,0.6186,0.6202,0.6226,0.6249,0.6281,0.6297,0.6324,0.6353,0.6396,0.6414,0.6435,0.644,0.6443,0.6444,0.6444,0.6442,0.6438,0.644,0.644,0.6441,0.6441,0.6441,0,0.6061,0.6083,0.6107,0.6141,0.6162,0.6177,0.6206,0.6222,0.6245,0.6271,0.6294,0.6325,0.6352,0.6382,0.641,0.6421,0.6429,0.6427,0.6427,0.6431,0.6436,0.6431,0.642,0.642,0.642,0.642,0.642,0.642,0.6058,0.6082,0.61,0.6134,0.6156,0.6183,0.6198,0.622,0.6241,0.6275,0.6297,0.6317,0.6345,0.6376,0.6401,0.641,0.6419,0.6414,0.6425,0.6429,0.643,0.6432,0.6428,0.6416,0.6416,0.6418,0.6418,0.6418]},{"header":{"parameterUnit":"m.s-1","parameterCategory":1,"la1":30.2991,"la2":30.254,"lo1":-89.0895,"lo2":-89.0444,"dy":0.0017,"dx":0.0017,"nx":28,"ny":28,"refTime":"2025-07-05T09:00:00:Z","depth":0,"parameterNumber":3,"parameterNumberName":"V-component_of_WINDS"},"data":[0,0,0,0,0,0,0,0,0,0,0,0,0,0,0,0,0,0,0,0,0,0,0,0,0,0,0,0,0,0,0,0,0,0,0,0,0,0,0,0,0,0,0,0,0,0,0,0,0,0,0,0,0,0,0,0,0,0,-1.0832,-1.0833,0,-1.0878,-1.0879,-1.0879,-1.089,-1.089,-1.089,-1.0889,-1.0936,-1.0938,-1.0939,0,0,0,0,0,0,0,0,0,0,0,0,0,-1.0752,-1.0754,-1.0832,-1.0833,-1.0833,-1.0878,-1.0879,-1.088,-1.089,-1.089,-1.089,-1.0889,-1.0936,-1.0938,-1.0939,0,0,0,0,0,0,0,0,0,0,0,0,0,-1.0792,-1.0754,-1.0832,-1.0844,-1.0846,-1.0878,-1.0879,-1.088,-1.0891,-1.089,-1.089,-1.0889,-1.0935,-1.0937,-1.094,-1.0963,0,0,-1.0947,-1.0948,0,0,0,0,0,0,0,0,-1.0789,-1.0795,-1.0842,-1.0843,-1.0845,-1.0878,-1.0868,-1.0908,-1.0891,-1.0873,-1.0889,-1.0889,-1.0917,-1.0921,-1.0931,-1.0965,-1.0967,-1.0947,-1.0948,-1.0949,-1.095,0,0,0,0,0,0,0,-1.0787,-1.0793,-1.085,-1.0842,-1.0844,-1.0847,-1.0852,-1.0876,-1.0897,-1.0875,-1.0876,-1.0881,-1.0918,-1.0928,-1.0932,-1.0968,-1.0947,-1.0949,-1.095,-1.0951,-1.1025,-1.1025,0,0,0,0,0,0,-1.0782,-1.079,-1.0849,-1.0852,-1.0816,-1.0849,-1.0855,-1.0868,-1.0897,-1.0901,-1.0882,-1.0882,-1.0925,-1.0929,-1.0934,-1.0963,-1.0949,-1.0951,-1.0953,-1.1024,-1.1025,-1.1025,0,0,0,0,0,0,-1.078,-1.0787,-1.0847,-1.0821,-1.0829,-1.0851,-1.0866,-1.0869,-1.0879,-1.0902,-1.0906,-1.0888,-1.0925,-1.093,-1.0956,-1.0965,-1.0952,-1.0955,-1.1023,-1.1024,-1.1025,-1.1022,0,0,0,0,0,0,-1.0778,-1.0786,-1.0796,-1.0821,-1.083,-1.0868,-1.0866,-1.087,-1.0884,-1.0884,-1.0909,-1.0913,-1.0925,-1.0952,-1.0958,-1.0968,-1.0956,-1.1023,-1.1024,-1.1025,-1.1021,-1.1022,-1.1024,0,0,0,0,0,-1.0775,-1.0793,-1.0796,-1.0803,-1.0842,-1.0869,-1.0874,-1.0887,-1.0884,-1.0894,-1.0908,-1.0912,-1.0963,-1.0955,-1.0961,-1.0972,-1.1022,-1.1024,-1.1025,-1.1021,-1.1022,-1.1024,0,0,0,0,0,0,-1.0767,-1.0796,-1.08,-1.0827,-1.0845,-1.0871,-1.0883,-1.0888,-1.0908,-1.0907,-1.0923,-1.0928,-1.0953,-1.0965,-1.0955,-1.0996,-1.0993,-1.0995,-1.0987,-1.0989,-1.099,-1.0986,-1.0958,0,0,0,0,0,-1.0768,-1.0787,-1.0812,-1.0833,-1.0842,-1.0861,-1.0873,-1.0882,-1.0901,-1.0909,-1.0926,-1.0944,-1.0965,-1.0978,-1.0997,-1.1023,-1.1029,-1.1034,-1.1035,-1.1036,-1.1038,-1.1052,-1.1055,-1.103,-1.103,-1.103,0,0,-1.0771,-1.0789,-1.08,-1.0832,-1.0847,-1.0867,-1.0867,-1.0888,-1.0902,-1.0912,-1.0937,-1.095,-1.0972,-1.0998,-1.101,-1.1009,-1.1046,-1.1038,-1.1038,-1.1039,-1.1054,-1.1056,-1.1058,-1.1031,-1.103,-1.103,0,0,-1.0786,-1.0802,-1.0821,-1.0837,-1.086,-1.0873,-1.0877,-1.0902,-1.0911,-1.0937,-1.0944,-1.0962,-1.0997,-1.1012,-1.1024,-1.1046,-1.105,-1.1052,-1.1058,-1.1072,-1.1074,-1.1076,-1.1083,-1.1085,-1.1054,-1.1054,-1.1054,0,-1.0786,-1.0816,-1.083,-1.085,-1.0864,-1.0874,-1.0894,-1.0908,-1.0937,-1.0946,-1.0944,-1.0988,-1.1004,-1.1033,-1.1038,-1.1048,-1.1054,-1.1049,-1.1072,-1.1074,-1.1076,-1.1083,-1.1086,-1.1054,-1.1054,-1.1054,-1.1054,0,-1.0815,-1.0835,-1.0848,-1.0876,-1.0891,-1.0911,-1.0928,-1.0942,-1.0949,-1.0962,-1.0988,-1.1007,-1.1031,-1.1039,-1.1046,-1.107,-1.1068,-1.1069,-1.1066,-1.1078,-1.1085,-1.1088,-1.1054,-1.1054,-1.1054,-1.1054,0,0,-1.0824,-1.0861,-1.0865,-1.0878,-1.0905,-1.0921,-1.0941,-1.0965,-1.0976,-1.0996,-1.1013,-1.1043,-1.1044,-1.1058,-1.1068,-1.108,-1.1096,-1.108,-1.1081,-1.1082,-1.1122,-1.1121,-1.1124,-1.1099,-1.11,-1.11,-1.112,0,-1.0842,-1.0879,-1.0893,-1.0923,-1.0942,-1.0952,-1.097,-1.0989,-1.1001,-1.102,-1.1034,-1.1054,-1.1054,-1.1063,-1.1076,-1.1091,-1.1104,-1.109,-1.1115,-1.1116,-1.1108,-1.1127,-1.1126,-1.1143,-1.1123,-1.1124,-1.1124,0,-1.0867,-1.0887,-1.0919,-1.0945,-1.0953,-1.0969,-1.0992,-1.1009,-1.103,-1.1039,-1.1055,-1.1064,-1.1086,-1.1081,-1.1112,-1.1102,-1.1113,-1.1122,-1.1123,-1.1125,-1.112,-1.1129,-1.115,-1.1152,-1.1128,-1.1128,-1.1128,0,-1.087,-1.0906,-1.093,-1.094,-1.097,-1.0981,-1.0994,-1.1015,-1.1028,-1.1049,-1.1058,-1.108,-1.1092,-1.111,-1.1124,-1.112,-1.1153,-1.115,-1.116,-1.116,-1.1166,-1.1165,-1.1187,-1.1175,-1.1175,-1.1174,-1.1174,0,-1.0888,-1.0907,-1.0931,-1.0946,-1.0968,-1.0984,-1.1005,-1.1018,-1.1037,-1.1054,-1.1065,-1.1081,-1.11,-1.1118,-1.113,-1.1153,-1.1159,-1.1166,-1.1169,-1.1165,-1.1164,-1.1172,-1.117,-1.1175,-1.1175,-1.1175,-1.1175,0,-1.0895,-1.0912,-1.0938,-1.0965,-1.0972,-1.0987,-1.1009,-1.1024,-1.1038,-1.1059,-1.1065,-1.1086,-1.1109,-1.1126,-1.1155,-1.1162,-1.1187,-1.119,-1.118,-1.1181,-1.119,-1.1188,-1.1217,-1.1222,-1.1206,-1.1207,-1.1207,0,-1.0904,-1.0919,-1.0948,-1.096,-1.0973,-1.0993,-1.1007,-1.1024,-1.1038,-1.1064,-1.1075,-1.1099,-1.1118,-1.1153,-1.1171,-1.1193,-1.1197,-1.1205,-1.12,-1.1195,-1.1196,-1.1195,-1.1196,-1.1206,-1.1206,-1.1206,-1.1206,0,-1.092,-1.0928,-1.0947,-1.0971,-1.0987,-1.1006,-1.1025,-1.1035,-1.1055,-1.107,-1.1093,-1.1108,-1.1138,-1.1161,-1.1185,-1.1199,-1.1206,-1.1208,-1.1211,-1.1207,-1.12,-1.1203,-1.1181,-1.1207,-1.1207,-1.1207,-1.1206,-1.1206,-1.0928,-1.0942,-1.0964,-1.0986,-1.1002,-1.102,-1.1035,-1.105,-1.107,-1.1095,-1.1104,-1.1128,-1.115,-1.1183,-1.1197,-1.1216,-1.1216,-1.1221,-1.1222,-1.1223,-1.1222,-1.1197,-1.122,-1.122,-1.122,-1.122,-1.122,0,-1.0943,-1.0958,-1.0978,-1.1005,-1.1022,-1.1028,-1.1049,-1.1063,-1.1084,-1.1104,-1.1123,-1.115,-1.1172,-1.1192,-1.1215,-1.1227,-1.123,-1.1232,-1.1231,-1.1234,-1.1221,-1.1215,-1.1229,-1.1229,-1.1229,-1.1229,-1.1229,-1.1229,-1.0953,-1.0977,-1.0987,-1.1019,-1.1034,-1.1058,-1.1069,-1.1086,-1.1102,-1.1131,-1.115,-1.1163,-1.1183,-1.1208,-1.1229,-1.1234,-1.1242,-1.1243,-1.1249,-1.1236,-1.1235,-1.1234,-1.1229,-1.1244,-1.1244,-1.126,-1.126,-1.126]}]]